Tracking 19149 objects as of 22-Apr-2018
HD Live streaming from Space Station
objects crossing your sky now

FENGYUN 1C DEB

Track FENGYUN 1C DEB now!
10-day predictions


NORAD ID: 31320
Int'l Code: 1999-025BPY
Perigee: 802.7 km
Apogee: 993.3 km
Inclination: 98.3 °
Period: 102.8 minutes
Semi major axis: 7268 km
RCS: 0.0097 m2 (small)
Launch date: May 10, 1999
Source: People's Republic of China (PRC)
Launch site: Taiyaun Space Center, China (TSC)

Note: This is SATELLITE DEBRIS
aabbcc
Your satellite tracking list
Your tracking list is empty




NASA's NSSDC Master Catalog

Two Line Element Set (TLE):
1 31320U 99025BPY 18110.22569866 +.00001081 +00000-0 +69445-3 0  9990
2 31320 098.3027 111.5938 0131143 136.1688 224.9977 14.00854032210992
Source of the keplerian elements: AFSPC